"read_dt","SO2 (ppb)","flags","PMT voltage (V)","lamp voltage (V)","lamp intensity (Hz)","internal temp (C)","react chamber temp (C)","sample flow (l/min)","pres (mmHg)","SO2 bkg (ppb)","SO2 coefficient"
2016-05-08 00:00:00,1901E-3,5C000400,-0724,0834,12029,031.5,045.5,0.249,757.7,01.16,0.508
2016-05-08 00:01:00,1801E-3,5C000400,-0724,0835,12083,031.5,045.5,0.249,757.6,01.16,0.508
2016-05-08 00:02:00,1866E-3,5C000400,-0724,0834,12220,031.5,045.5,0.249,757.7,01.16,0.508
2016-05-08 00:03:00,1849E-3,5C000400,-0724,0835,12023,031.5,045.5,0.249,757.7,01.16,0.508
2016-05-08 00:04:00,1926E-3,5C000400,-0724,0835,12186,031.6,045.5,0.248,757.7,01.16,0.508
2016-05-08 00:05:00,1930E-3,5C000400,-0724,0834,11994,031.6,045.5,0.249,757.7,01.16,0.508
2016-05-08 00:06:00,1914E-3,5C000400,-0724,0834,12148,031.6,045.5,0.249,757.7,01.16,0.508
2016-05-08 00:07:00,1882E-3,5C000400,-0724,0835,12186,031.6,045.5,0.249,757.7,01.16,0.508
2016-05-08 00:08:00,1906E-3,5C000400,-0724,0835,12138,031.5,045.5,0.249,757.6,01.16,0.508
2016-05-08 00:09:00,1868E-3,5C000400,-0724,0835,12148,031.5,045.5,0.249,757.6,01.16,0.508
2016-05-08 00:10:00,1822E-3,5C000400,-0724,0834,12232,031.5,045.5,0.249,757.6,01.16,0.508
2016-05-08 00:11:00,1970E-3,5C000400,-0724,0835,12125,031.6,045.5,0.249,757.7,01.16,0.508
2016-05-08 00:12:00,1887E-3,5C000400,-0724,0835,12225,031.6,045.5,0.249,757.7,01.16,0.508
2016-05-08 00:13:00,1988E-3,5C000400,-0724,0835,12207,031.5,045.5,0.249,757.7,01.16,0.508
2016-05-08 00:14:00,1944E-3,5C000400,-0724,0834,12130,031.5,045.5,0.249,757.7,01.16,0.508
2016-05-08 00:15:00,1827E-3,5C000400,-0724,0835,12249,031.6,045.5,0.249,757.7,01.16,0.508
2016-05-08 00:16:00,1933E-3,5C000400,-0724,0834,12079,031.6,045.5,0.248,757.6,01.16,0.508
2016-05-08 00:17:00,1890E-3,5C000400,-0724,0833,12124,031.6,045.5,0.249,757.7,01.16,0.508
2016-05-08 00:18:00,1903E-3,5C000400,-0724,0834,12136,031.6,045.5,0.249,757.6,01.16,0.508
2016-05-08 00:19:00,1903E-3,5C000400,-0724,0834,12188,031.6,045.5,0.249,757.6,01.16,0.508
2016-05-08 00:20:00,1786E-3,5C000400,-0724,0835,12240,031.6,045.5,0.249,757.6,01.16,0.508
2016-05-08 00:21:00,1817E-3,5C000400,-0724,0834,12128,031.6,045.5,0.248,757.6,01.16,0.508
2016-05-08 00:22:00,1701E-3,5C000400,-0724,0834,12187,031.6,045.5,0.249,757.6,01.16,0.508
2016-05-08 00:23:00,1795E-3,5C000400,-0724,0834,12028,031.6,045.5,0.249,757.6,01.16,0.508
2016-05-08 00:24:00,1908E-3,5C000400,-0724,0835,12152,031.6,045.5,0.249,757.6,01.16,0.508
2016-05-08 00:25:00,1781E-3,5C000400,-0724,0834,11974,031.6,045.5,0.249,757.6,01.16,0.508
2016-05-08 00:26:00,1787E-3,5C000400,-0724,0834,12114,031.6,045.5,0.248,757.6,01.16,0.508
2016-05-08 00:27:00,1990E-3,5C000400,-0724,0834,12202,031.6,045.5,0.249,757.5,01.16,0.508
2016-05-08 00:28:00,1975E-3,5C000400,-0724,0835,12010,031.6,045.5,0.249,757.6,01.16,0.508
2016-05-08 00:29:00,1894E-3,5C000400,-0724,0834,12056,031.6,045.5,0.249,757.6,01.16,0.508
2016-05-08 00:30:00,1818E-3,5C000400,-0724,0834,12134,031.6,045.5,0.249,757.6,01.16,0.508
2016-05-08 00:31:00,1994E-3,5C000400,-0724,0834,12170,031.6,045.5,0.248,757.6,01.16,0.508
2016-05-08 00:32:00,1994E-3,5C000400,-0724,0834,12185,031.6,045.6,0.249,757.6,01.16,0.508
2016-05-08 00:33:00,1986E-3,5C000400,-0724,0834,12129,031.6,045.5,0.249,757.5,01.16,0.508
2016-05-08 00:34:00,1920E-3,5C000400,-0724,0835,12026,031.6,045.5,0.249,757.6,01.16,0.508
2016-05-08 00:35:00,1860E-3,5C000400,-0724,0834,12060,031.6,045.5,0.249,757.6,01.16,0.508
2016-05-08 00:36:00,1942E-3,5C000400,-0724,0835,12205,031.6,045.5,0.248,757.6,01.16,0.508
2016-05-08 00:37:00,2013E-3,5C000400,-0724,0834,12101,031.6,045.5,0.248,757.6,01.16,0.508
2016-05-08 00:38:00,1943E-3,5C000400,-0724,0835,12176,031.6,045.5,0.249,757.6,01.16,0.508
2016-05-08 00:39:00,1906E-3,5C000400,-0724,0833,12131,031.6,045.5,0.249,757.6,01.16,0.508
2016-05-08 00:40:00,1921E-3,5C000400,-0724,0834,12172,031.6,045.5,0.249,757.6,01.16,0.508
2016-05-08 00:41:00,1846E-3,5C000400,-0724,0833,12121,031.6,045.5,0.248,757.6,01.16,0.508
2016-05-08 00:42:00,1961E-3,5C000400,-0724,0835,12125,031.6,045.5,0.248,757.6,01.16,0.508
2016-05-08 00:43:00,2004E-3,5C000400,-0724,0835,12224,031.6,045.5,0.249,757.6,01.16,0.508
2016-05-08 00:44:00,2018E-3,5C000400,-0724,0835,12019,031.6,045.5,0.249,757.6,01.16,0.508
2016-05-08 00:45:00,1892E-3,5C000400,-0724,0834,12163,031.6,045.5,0.249,757.6,01.16,0.508
2016-05-08 00:46:00,2026E-3,5C000400,-0724,0834,12061,031.6,045.5,0.248,757.6,01.16,0.508
2016-05-08 00:47:00,1933E-3,5C000400,-0724,0835,12093,031.6,045.5,0.248,757.6,01.16,0.508
2016-05-08 00:48:00,1899E-3,5C000400,-0724,0834,12150,031.6,045.5,0.249,757.6,01.16,0.508
2016-05-08 00:49:00,1866E-3,5C000400,-0724,0834,12147,031.6,045.5,0.249,757.7,01.16,0.508
2016-05-08 00:50:00,1857E-3,5C000400,-0724,0835,12250,031.6,045.5,0.249,757.7,01.16,0.508
2016-05-08 00:51:00,1884E-3,5C000400,-0724,0835,12237,031.6,045.5,0.249,757.7,01.16,0.508
2016-05-08 00:52:00,1830E-3,5C000400,-0724,0834,12059,031.7,045.5,0.248,757.7,01.16,0.508
2016-05-08 00:53:00,1928E-3,5C000400,-0724,0835,12216,031.6,045.5,0.249,757.7,01.16,0.508
2016-05-08 00:54:00,1868E-3,5C000400,-0724,0835,12223,031.6,045.5,0.249,757.7,01.16,0.508
2016-05-08 00:55:00,1885E-3,5C000400,-0724,0835,12288,031.7,045.5,0.249,757.7,01.16,0.508
2016-05-08 00:56:00,1879E-3,5C000400,-0724,0835,12217,031.7,045.6,0.249,757.7,01.16,0.508
2016-05-08 00:57:00,1953E-3,5C000400,-0724,0834,12130,031.7,045.5,0.248,757.7,01.16,0.508
2016-05-08 00:58:00,1868E-3,5C000400,-0724,0834,12212,031.7,045.5,0.248,757.7,01.16,0.508
2016-05-08 00:59:00,1979E-3,5C000400,-0724,0834,11932,031.7,045.5,0.249,757.7,01.16,0.508
2016-05-08 01:00:00,2066E-3,5C000400,-0724,0834,12091,031.7,045.5,0.249,757.6,01.16,0.508
2016-05-08 01:01:00,2130E-3,5C000400,-0724,0834,12148,031.7,045.5,0.248,757.6,01.16,0.508
2016-05-08 01:02:00,1910E-3,5C000400,-0724,0834,12096,031.7,045.5,0.248,757.6,01.16,0.508
2016-05-08 01:03:00,1958E-3,5C000400,-0724,0835,12158,031.7,045.5,0.248,757.7,01.16,0.508
2016-05-08 01:04:00,1785E-3,5C000400,-0724,0835,12223,031.7,045.6,0.249,757.7,01.16,0.508
2016-05-08 01:05:00,1937E-3,5C000400,-0724,0835,12288,031.7,045.5,0.249,757.7,01.16,0.508
2016-05-08 01:06:00,1817E-3,5C000400,-0724,0835,12203,031.7,045.5,0.249,757.7,01.16,0.508
2016-05-08 01:07:00,1907E-3,5C000400,-0724,0834,12115,031.7,045.5,0.248,757.7,01.16,0.508
2016-05-08 01:08:00,1945E-3,5C000400,-0724,0834,12090,031.7,045.5,0.248,757.6,01.16,0.508
2016-05-08 01:09:00,2072E-3,5C000400,-0724,0835,12196,031.7,045.5,0.248,757.6,01.16,0.508
2016-05-08 01:10:00,1927E-3,5C000400,-0724,0835,12160,031.7,045.5,0.249,757.6,01.16,0.508
2016-05-08 01:11:00,1965E-3,5C000400,-0724,0835,12094,031.7,045.6,0.249,757.7,01.16,0.508
2016-05-08 01:12:00,1891E-3,5C000400,-0724,0835,12262,031.7,045.6,0.249,757.7,01.16,0.508
2016-05-08 01:13:00,1833E-3,5C000400,-0724,0834,12048,031.7,045.5,0.248,757.7,01.16,0.508
2016-05-08 01:14:00,1941E-3,5C000400,-0724,0834,12014,031.7,045.6,0.248,757.7,01.16,0.508
2016-05-08 01:15:00,1820E-3,5C000400,-0724,0835,12044,031.7,045.5,0.248,757.7,01.16,0.508
2016-05-08 01:16:00,1883E-3,5C000400,-0724,0834,11982,031.7,045.5,0.248,757.7,01.16,0.508
2016-05-08 01:17:00,1821E-3,5C000400,-0724,0835,12206,031.7,045.5,0.249,757.7,01.16,0.508
2016-05-08 01:18:00,1923E-3,5C000400,-0724,0835,12213,031.7,045.5,0.248,757.7,01.16,0.508
2016-05-08 01:19:00,1935E-3,5C000400,-0724,0835,12070,031.7,045.5,0.248,757.7,01.16,0.508
2016-05-08 01:20:00,1977E-3,5C000400,-0724,0835,12254,031.8,045.5,0.248,757.7,01.16,0.508
2016-05-08 01:21:00,1960E-3,5C000400,-0724,0835,11866,031.8,045.6,0.248,757.7,01.16,0.508
2016-05-08 01:22:00,1914E-3,5C000400,-0724,0834,12089,031.8,045.5,0.248,757.7,01.16,0.508
2016-05-08 01:23:00,1898E-3,5C000400,-0724,0834,12196,031.8,045.5,0.249,757.7,01.16,0.508
2016-05-08 01:24:00,1995E-3,5C000400,-0724,0834,12088,031.8,045.5,0.248,757.7,01.16,0.508
2016-05-08 01:25:00,1868E-3,5C000400,-0724,0834,12133,031.7,045.5,0.248,757.7,01.16,0.508
2016-05-08 01:26:00,1820E-3,5C000400,-0724,0835,12154,031.8,045.6,0.248,757.7,01.16,0.508
2016-05-08 01:27:00,1945E-3,5C000400,-0724,0834,12147,031.8,045.6,0.248,757.7,01.16,0.508
2016-05-08 01:28:00,1945E-3,5C000400,-0724,0834,12145,031.8,045.5,0.249,757.7,01.16,0.508
2016-05-08 01:29:00,1861E-3,5C000400,-0724,0835,12168,031.8,045.5,0.248,757.7,01.16,0.508
2016-05-08 01:30:00,1907E-3,5C000400,-0724,0834,12157,031.8,045.5,0.248,757.7,01.16,0.508
2016-05-08 01:31:00,1884E-3,5C000400,-0724,0834,12189,031.8,045.5,0.248,757.7,01.16,0.508
2016-05-08 01:32:00,1981E-3,5C000400,-0724,0834,12145,031.8,045.5,0.248,757.7,01.16,0.508
2016-05-08 01:33:00,1974E-3,5C000400,-0724,0835,12039,031.8,045.5,0.248,757.7,01.16,0.508
2016-05-08 01:34:00,1897E-3,5C000400,-0724,0834,12045,031.8,045.5,0.249,757.7,01.16,0.508
2016-05-08 01:35:00,2088E-3,5C000400,-0724,0834,12172,031.8,045.5,0.248,757.7,01.16,0.508
2016-05-08 01:36:00,1823E-3,5C000400,-0724,0834,12105,031.8,045.6,0.248,757.7,01.16,0.508
2016-05-08 01:37:00,1880E-3,5C000400,-0724,0834,11972,031.8,045.6,0.248,757.6,01.16,0.508
2016-05-08 01:38:00,1944E-3,5C000400,-0724,0834,12055,031.8,045.5,0.248,757.6,01.16,0.508
2016-05-08 01:39:00,1928E-3,5C000400,-0724,0834,12173,031.8,045.5,0.249,757.7,01.16,0.508
2016-05-08 01:40:00,1926E-3,5C000400,-0724,0835,12024,031.8,045.5,0.248,757.6,01.16,0.508
2016-05-08 01:41:00,1861E-3,5C000400,-0724,0835,12128,031.8,045.6,0.248,757.6,01.16,0.508
2016-05-08 01:42:00,1982E-3,5C000400,-0724,0835,12191,031.8,045.5,0.248,757.6,01.16,0.508
2016-05-08 01:43:00,1780E-3,5C000400,-0724,0835,12099,031.8,045.5,0.248,757.6,01.16,0.508
2016-05-08 01:44:00,1887E-3,5C000400,-0724,0834,12118,031.8,045.5,0.248,757.6,01.16,0.508
2016-05-08 01:45:00,1976E-3,5C000400,-0724,0834,12199,031.8,045.5,0.248,757.6,01.16,0.508
2016-05-08 01:46:00,1957E-3,5C000400,-0724,0835,12106,031.8,045.6,0.248,757.6,01.16,0.508
2016-05-08 01:47:00,2049E-3,5C000400,-0724,0835,12152,031.8,045.6,0.248,757.6,01.16,0.508
2016-05-08 01:48:00,2092E-3,5C000400,-0724,0835,12091,031.8,045.6,0.248,757.6,01.16,0.508
2016-05-08 01:49:00,1991E-3,5C000400,-0724,0834,12029,031.8,045.5,0.248,757.6,01.16,0.508
2016-05-08 01:50:00,1960E-3,5C000400,-0724,0835,12015,031.8,045.5,0.248,757.6,01.16,0.508
2016-05-08 01:51:00,1935E-3,5C000400,-0724,0834,12178,031.9,045.6,0.248,757.6,01.16,0.508
2016-05-08 01:52:00,1867E-3,5C000400,-0724,0834,12129,031.8,045.5,0.248,757.6,01.16,0.508
2016-05-08 01:53:00,1834E-3,5C000400,-0724,0835,12108,031.9,045.6,0.248,757.6,01.16,0.508
2016-05-08 01:54:00,1871E-3,5C000400,-0724,0834,12076,031.9,045.6,0.248,757.6,01.16,0.508
2016-05-08 01:55:00,1785E-3,5C000400,-0724,0834,12009,031.9,045.5,0.248,757.6,01.16,0.508
2016-05-08 01:56:00,2001E-3,5C000400,-0724,0835,12124,031.9,045.6,0.248,757.6,01.16,0.508
2016-05-08 01:57:00,2148E-3,5C000400,-0724,0836,12131,031.9,045.5,0.248,757.6,01.16,0.508
2016-05-08 01:58:00,1886E-3,5C000400,-0724,0835,12147,031.9,045.5,0.248,757.6,01.16,0.508
2016-05-08 01:59:00,1846E-3,5C000400,-0724,0835,12143,031.9,045.5,0.248,757.6,01.16,0.508
2016-05-08 02:00:00,1961E-3,5C000400,-0724,0834,12052,031.9,045.6,0.248,757.6,01.16,0.508
2016-05-08 02:01:00,1953E-3,5C000400,-0724,0834,12134,031.9,045.6,0.248,757.6,01.16,0.508
2016-05-08 02:02:00,1928E-3,5C000400,-0724,0835,12234,031.9,045.5,0.248,757.6,01.16,0.508
2016-05-08 02:03:00,1889E-3,5C000400,-0724,0834,12126,031.9,045.5,0.248,757.6,01.16,0.508
2016-05-08 02:04:00,1861E-3,5C000400,-0724,0835,12164,031.9,045.5,0.248,757.6,01.16,0.508
2016-05-08 02:05:00,1868E-3,5C000400,-0724,0834,12078,031.9,045.6,0.248,757.6,01.16,0.508
2016-05-08 02:06:00,1948E-3,5C000400,-0724,0835,12128,031.9,045.5,0.248,757.5,01.16,0.508
2016-05-08 02:07:00,1886E-3,5C000400,-0724,0835,12143,031.9,045.5,0.248,757.5,01.16,0.508
2016-05-08 02:08:00,1951E-3,5C000400,-0724,0834,12162,031.9,045.5,0.248,757.4,01.16,0.508
2016-05-08 02:09:00,1949E-3,5C000400,-0724,0834,11990,032.0,045.5,0.248,757.5,01.16,0.508
2016-05-08 02:10:00,1818E-3,5C000400,-0724,0835,11992,032.0,045.5,0.248,757.5,01.16,0.508
2016-05-08 02:11:00,1959E-3,5C000400,-0724,0834,12097,032.0,045.6,0.248,757.5,01.16,0.508
2016-05-08 02:12:00,2006E-3,5C000400,-0724,0834,12045,032.0,045.6,0.248,757.5,01.16,0.508
2016-05-08 02:13:00,1842E-3,5C000400,-0724,0835,12123,032.0,045.6,0.248,757.5,01.16,0.508
2016-05-08 02:14:00,1911E-3,5C000400,-0724,0835,12134,032.0,045.5,0.247,757.5,01.16,0.508
2016-05-08 02:15:00,1964E-3,5C000400,-0724,0835,12204,032.0,045.5,0.248,757.5,01.16,0.508
2016-05-08 02:16:00,1899E-3,5C000400,-0724,0834,12152,032.0,045.5,0.248,757.5,01.16,0.508
2016-05-08 02:17:00,1855E-3,5C000400,-0724,0834,12219,032.0,045.5,0.248,757.6,01.16,0.508
2016-05-08 02:18:00,1845E-3,5C000400,-0724,0835,12160,032.0,045.5,0.248,757.6,01.16,0.508
2016-05-08 02:19:00,1787E-3,5C000400,-0724,0835,12036,032.0,045.5,0.248,757.6,01.16,0.508
2016-05-08 02:20:00,1885E-3,5C000400,-0724,0835,12139,032.0,045.6,0.247,757.5,01.16,0.508
2016-05-08 02:21:00,2031E-3,5C000400,-0724,0835,12023,032.0,045.5,0.248,757.5,01.16,0.508
2016-05-08 02:22:00,1921E-3,5C000400,-0724,0835,12259,032.0,045.5,0.248,757.5,01.16,0.508
2016-05-08 02:23:00,2094E-3,5C000400,-0724,0834,12276,032.0,045.6,0.248,757.5,01.16,0.508
2016-05-08 02:24:00,1926E-3,5C000400,-0724,0836,12082,032.0,045.5,0.248,757.5,01.16,0.508
2016-05-08 02:25:00,1822E-3,5C000400,-0724,0834,12232,032.1,045.6,0.247,757.5,01.16,0.508
2016-05-08 02:26:00,2006E-3,5C000400,-0724,0835,12075,032.0,045.6,0.248,757.5,01.16,0.508
2016-05-08 02:27:00,1872E-3,5C000400,-0724,0834,12094,032.0,045.5,0.248,757.5,01.16,0.508
2016-05-08 02:28:00,1808E-3,5C000400,-0724,0835,12112,032.0,045.5,0.248,757.5,01.16,0.508
2016-05-08 02:29:00,1903E-3,5C000400,-0724,0835,12146,032.0,045.5,0.248,757.5,01.16,0.508
2016-05-08 02:30:00,1998E-3,5C000400,-0724,0835,12215,032.0,045.5,0.248,757.5,01.16,0.508
2016-05-08 02:31:00,1805E-3,5C000400,-0724,0834,12076,032.0,045.5,0.247,757.5,01.16,0.508
2016-05-08 02:32:00,1985E-3,5C000400,-0724,0834,12177,032.0,045.5,0.248,757.5,01.16,0.508
2016-05-08 02:33:00,1991E-3,5C000400,-0724,0834,12166,032.1,045.5,0.248,757.5,01.16,0.508
2016-05-08 02:34:00,1969E-3,5C000400,-0724,0834,12066,032.1,045.5,0.248,757.5,01.16,0.508
2016-05-08 02:35:00,1949E-3,5C000400,-0724,0835,12289,032.1,045.6,0.248,757.5,01.16,0.508
2016-05-08 02:36:00,1981E-3,5C000400,-0724,0834,12071,032.1,045.6,0.247,757.5,01.16,0.508
2016-05-08 02:37:00,1897E-3,5C000400,-0724,0835,11994,032.1,045.5,0.247,757.5,01.16,0.508
2016-05-08 02:38:00,1849E-3,5C000400,-0724,0835,12204,032.1,045.6,0.248,757.5,01.16,0.508
2016-05-08 02:39:00,1929E-3,5C000400,-0724,0834,12190,032.1,045.6,0.248,757.5,01.16,0.508
2016-05-08 02:40:00,1849E-3,5C000400,-0724,0834,12187,032.1,045.6,0.248,757.5,01.16,0.508
2016-05-08 02:41:00,1904E-3,5C000400,-0724,0835,12069,032.1,045.5,0.248,757.5,01.16,0.508
2016-05-08 02:42:00,1992E-3,5C000400,-0724,0835,12155,032.1,045.5,0.247,757.5,01.16,0.508
2016-05-08 02:43:00,1961E-3,5C000400,-0724,0834,12156,032.1,045.5,0.247,757.5,01.16,0.508
2016-05-08 02:44:00,1951E-3,5C000400,-0724,0834,12086,032.1,045.6,0.248,757.5,01.16,0.508
2016-05-08 02:45:00,1934E-3,5C000400,-0724,0834,12013,032.1,045.5,0.248,757.5,01.16,0.508
2016-05-08 02:46:00,1930E-3,5C000400,-0724,0834,12174,032.1,045.6,0.248,757.5,01.16,0.508
2016-05-08 02:47:00,1935E-3,5C000400,-0724,0834,12289,032.1,045.5,0.247,757.5,01.16,0.508
2016-05-08 02:48:00,2070E-3,5C000400,-0724,0835,12194,032.1,045.5,0.247,757.5,01.16,0.508
2016-05-08 02:49:00,1918E-3,5C000400,-0724,0835,12101,032.1,045.5,0.248,757.5,01.16,0.508
2016-05-08 02:50:00,1914E-3,5C000400,-0724,0834,11967,032.2,045.6,0.248,757.5,01.16,0.508
2016-05-08 02:51:00,1909E-3,5C000400,-0724,0834,12129,032.1,045.6,0.248,757.5,01.16,0.508
2016-05-08 02:52:00,1948E-3,5C000400,-0724,0834,12196,032.2,045.6,0.248,757.5,01.16,0.508
2016-05-08 02:53:00,1889E-3,5C000400,-0724,0835,12251,032.2,045.6,0.247,757.5,01.16,0.508
2016-05-08 02:54:00,1987E-3,5C000400,-0724,0834,12211,032.2,045.6,0.247,757.5,01.16,0.508
2016-05-08 02:55:00,1917E-3,5C000400,-0724,0834,12258,032.2,045.6,0.248,757.5,01.16,0.508
2016-05-08 02:56:00,1938E-3,5C000400,-0724,0834,12119,032.2,045.6,0.248,757.5,01.16,0.508
2016-05-08 02:57:00,2004E-3,5C000400,-0724,0835,12065,032.2,045.6,0.248,757.4,01.16,0.508
2016-05-08 02:58:00,1889E-3,5C000400,-0724,0835,12041,032.2,045.5,0.247,757.5,01.16,0.508
2016-05-08 02:59:00,1988E-3,5C000400,-0724,0835,12141,032.2,045.6,0.247,757.5,01.16,0.508
2016-05-08 03:00:00,1799E-3,5C000400,-0724,0835,12152,032.2,045.6,0.247,757.5,01.16,0.508
2016-05-08 03:01:00,1846E-3,5C000400,-0724,0834,11946,032.2,045.6,0.247,757.5,01.16,0.508
2016-05-08 03:02:00,1944E-3,5C000400,-0724,0834,12070,032.2,045.5,0.248,757.5,01.16,0.508
2016-05-08 03:03:00,1919E-3,5C000400,-0724,0835,12210,032.2,045.6,0.247,757.5,01.16,0.508
2016-05-08 03:04:00,2016E-3,5C000400,-0724,0835,12187,032.2,045.6,0.247,757.5,01.16,0.508
2016-05-08 03:05:00,1984E-3,5C000400,-0724,0835,12019,032.2,045.5,0.247,757.5,01.16,0.508
2016-05-08 03:06:00,2038E-3,5C000400,-0724,0834,12170,032.2,045.5,0.247,757.5,01.16,0.508
2016-05-08 03:07:00,2013E-3,5C000400,-0724,0835,12115,032.2,045.6,0.247,757.5,01.16,0.508
2016-05-08 03:08:00,2020E-3,5C000400,-0724,0835,12014,032.3,045.6,0.248,757.4,01.16,0.508
2016-05-08 03:09:00,1946E-3,5C000400,-0724,0835,12076,032.2,045.6,0.248,757.4,01.16,0.508
2016-05-08 03:10:00,1962E-3,5C000400,-0724,0835,12157,032.3,045.6,0.248,757.4,01.16,0.508
2016-05-08 03:11:00,1830E-3,5C000400,-0724,0835,12153,032.3,045.6,0.247,757.5,01.16,0.508
2016-05-08 03:12:00,1843E-3,5C000400,-0724,0834,12210,032.3,045.6,0.247,757.5,01.16,0.508
2016-05-08 03:13:00,1896E-3,5C000400,-0724,0835,12196,032.3,045.6,0.247,757.5,01.16,0.508
2016-05-08 03:14:00,1941E-3,5C000400,-0724,0835,12116,032.3,045.6,0.247,757.5,01.16,0.508
2016-05-08 03:15:00,1948E-3,5C000400,-0724,0834,12132,032.3,045.5,0.247,757.5,01.16,0.508
2016-05-08 03:16:00,1918E-3,5C000400,-0724,0835,12079,032.3,045.5,0.247,757.5,01.16,0.508
2016-05-08 03:17:00,1693E-3,5C000400,-0724,0835,12113,032.3,045.6,0.247,757.5,01.16,0.508
2016-05-08 03:18:00,1819E-3,5C000400,-0724,0836,12125,032.3,045.6,0.247,757.5,01.16,0.508
2016-05-08 03:19:00,1867E-3,5C000400,-0724,0835,12128,032.3,045.6,0.247,757.5,01.16,0.508
2016-05-08 03:20:00,1916E-3,5C000400,-0724,0836,12116,032.3,045.5,0.247,757.4,01.16,0.508
2016-05-08 03:21:00,1918E-3,5C000400,-0724,0835,12186,032.3,045.6,0.247,757.4,01.16,0.508
2016-05-08 03:22:00,1979E-3,5C000400,-0724,0835,12147,032.3,045.6,0.247,757.5,01.16,0.508
2016-05-08 03:23:00,1909E-3,5C000400,-0724,0834,12052,032.4,045.6,0.247,757.4,01.16,0.508
2016-05-08 03:24:00,1924E-3,5C000400,-0724,0835,12171,032.4,045.6,0.247,757.5,01.16,0.508
2016-05-08 03:25:00,2009E-3,5C000400,-0724,0834,12157,032.4,045.6,0.247,757.5,01.16,0.508
2016-05-08 03:26:00,1796E-3,5C000400,-0724,0834,12130,032.3,045.6,0.247,757.5,01.16,0.508
2016-05-08 03:27:00,1863E-3,5C000400,-0724,0834,11978,032.4,045.6,0.247,757.5,01.16,0.508
2016-05-08 03:28:00,1881E-3,5C000400,-0724,0835,12101,032.4,045.6,0.247,757.5,01.16,0.508
2016-05-08 03:29:00,2034E-3,5C000400,-0724,0836,12198,032.4,045.6,0.247,757.5,01.16,0.508
2016-05-08 03:30:00,1946E-3,5C000400,-0724,0835,12101,032.4,045.6,0.247,757.5,01.16,0.508
2016-05-08 03:31:00,1922E-3,5C000400,-0724,0834,12067,032.4,045.6,0.247,757.5,01.16,0.508
2016-05-08 03:32:00,1981E-3,5C000400,-0724,0834,12038,032.4,045.6,0.247,757.4,01.16,0.508
2016-05-08 03:33:00,1905E-3,5C000400,-0724,0835,12159,032.4,045.6,0.247,757.4,01.16,0.508
2016-05-08 03:34:00,1956E-3,5C000400,-0724,0835,12096,032.4,045.6,0.247,757.4,01.16,0.508
2016-05-08 03:35:00,1912E-3,5C000400,-0724,0835,12202,032.4,045.6,0.247,757.4,01.16,0.508
2016-05-08 03:36:00,2012E-3,5C000400,-0724,0834,12077,032.4,045.6,0.247,757.4,01.16,0.508
2016-05-08 03:37:00,1850E-3,5C000400,-0724,0835,12096,032.4,045.6,0.246,757.4,01.16,0.508
2016-05-08 03:38:00,1770E-3,5C000400,-0724,0834,12065,032.4,045.6,0.247,757.4,01.16,0.508
2016-05-08 03:39:00,1906E-3,5C000400,-0724,0835,11998,032.4,045.6,0.247,757.4,01.16,0.508
2016-05-08 03:40:00,1853E-3,5C000400,-0724,0834,12176,032.5,045.6,0.247,757.4,01.16,0.508
2016-05-08 03:41:00,1842E-3,5C000400,-0724,0835,12140,032.5,045.6,0.247,757.4,01.16,0.508
2016-05-08 03:42:00,1990E-3,5C000400,-0724,0835,11935,032.5,045.6,0.247,757.4,01.16,0.508
2016-05-08 03:43:00,1953E-3,5C000400,-0724,0835,12127,032.5,045.6,0.246,757.4,01.16,0.508
2016-05-08 03:44:00,1855E-3,5C000400,-0724,0835,12075,032.5,045.6,0.247,757.4,01.16,0.508
2016-05-08 03:45:00,1984E-3,5C000400,-0724,0834,12038,032.5,045.6,0.247,757.4,01.16,0.508
2016-05-08 03:46:00,1845E-3,5C000400,-0724,0835,12071,032.5,045.6,0.247,757.4,01.16,0.508
2016-05-08 03:47:00,1927E-3,5C000400,-0724,0835,12256,032.5,045.6,0.247,757.4,01.16,0.508
2016-05-08 03:48:00,1836E-3,5C000400,-0724,0835,12083,032.5,045.6,0.247,757.4,01.16,0.508
2016-05-08 03:49:00,1988E-3,5C000400,-0724,0835,12106,032.5,045.6,0.246,757.4,01.16,0.508
2016-05-08 03:50:00,1999E-3,5C000400,-0724,0835,12197,032.5,045.6,0.247,757.4,01.16,0.508
2016-05-08 03:51:00,2030E-3,5C000400,-0724,0836,12122,032.6,045.6,0.247,757.4,01.16,0.508
2016-05-08 03:52:00,2006E-3,5C000400,-0724,0835,12175,032.5,045.6,0.247,757.4,01.16,0.508
2016-05-08 03:53:00,1805E-3,5C000400,-0724,0836,12219,032.6,045.6,0.247,757.4,01.16,0.508
2016-05-08 03:54:00,1820E-3,5C000400,-0724,0835,12198,032.6,045.6,0.247,757.4,01.16,0.508
2016-05-08 03:55:00,1911E-3,5C000400,-0724,0835,12077,032.6,045.6,0.246,757.4,01.16,0.508
2016-05-08 03:56:00,1920E-3,5C000400,-0724,0835,12005,032.6,045.6,0.247,757.4,01.16,0.508
2016-05-08 03:57:00,1870E-3,5C000400,-0724,0835,12052,032.6,045.6,0.247,757.4,01.16,0.508
2016-05-08 03:58:00,1983E-3,5C000400,-0724,0835,12019,032.6,045.6,0.247,757.4,01.16,0.508
2016-05-08 03:59:00,1936E-3,5C000400,-0724,0834,12152,032.6,045.6,0.247,757.4,01.16,0.508
2016-05-08 04:00:00,1916E-3,5C000400,-0724,0835,12151,032.6,045.6,0.246,757.4,01.16,0.508
2016-05-08 04:01:00,1841E-3,5C000400,-0724,0835,12090,032.6,045.6,0.246,757.4,01.16,0.508
2016-05-08 04:02:00,1873E-3,5C000400,-0724,0834,12287,032.6,045.6,0.247,757.4,01.16,0.508
2016-05-08 04:03:00,1937E-3,5C000400,-0724,0835,12156,032.6,045.6,0.247,757.3,01.16,0.508
2016-05-08 04:04:00,1932E-3,5C000400,-0724,0835,12111,032.6,045.6,0.247,757.3,01.16,0.508
2016-05-08 04:05:00,1910E-3,5C000400,-0724,0835,12277,032.6,045.6,0.246,757.3,01.16,0.508
2016-05-08 04:06:00,1826E-3,5C000400,-0724,0835,12172,032.6,045.6,0.246,757.3,01.16,0.508
2016-05-08 04:07:00,1860E-3,5C000400,-0724,0834,12058,032.7,045.6,0.246,757.3,01.16,0.508
2016-05-08 04:08:00,1699E-3,5C000400,-0724,0835,12319,032.7,045.6,0.247,757.3,01.16,0.508
2016-05-08 04:09:00,1950E-3,5C000400,-0724,0835,12234,032.7,045.6,0.247,757.3,01.16,0.508
2016-05-08 04:10:00,2020E-3,5C000400,-0724,0835,12112,032.7,045.5,0.247,757.3,01.16,0.508
2016-05-08 04:11:00,1939E-3,5C000400,-0724,0834,11927,032.6,045.6,0.247,757.3,01.16,0.508
2016-05-08 04:12:00,1874E-3,5C000400,-0724,0835,12020,032.7,045.6,0.247,757.3,01.16,0.508
2016-05-08 04:13:00,1815E-3,5C000400,-0724,0835,12218,032.7,045.6,0.246,757.3,01.16,0.508
2016-05-08 04:14:00,1971E-3,5C000400,-0724,0835,12255,032.7,045.6,0.246,757.3,01.16,0.508
2016-05-08 04:15:00,1872E-3,5C000400,-0724,0835,12270,032.7,045.6,0.246,757.3,01.16,0.508
2016-05-08 04:16:00,1971E-3,5C000400,-0724,0834,12148,032.7,045.6,0.246,757.4,01.16,0.508
2016-05-08 04:17:00,1796E-3,5C000400,-0724,0835,12011,032.7,045.6,0.246,757.4,01.16,0.508
2016-05-08 04:18:00,1874E-3,5C000400,-0724,0835,12168,032.8,045.6,0.247,757.3,01.16,0.508
2016-05-08 04:19:00,1773E-3,5C000400,-0724,0835,12090,032.7,045.6,0.246,757.3,01.16,0.508
2016-05-08 04:20:00,1917E-3,5C000400,-0724,0835,12179,032.7,045.6,0.246,757.3,01.16,0.508